Greenville, MS

2:03 PM CDT on March 26, 2017 (GMT -0500)
Mid Delta Regional

Weather History for KGLH - November, 2011

Change the Weather History Date:

Wednesday, November 16, 2011

  Actual Average Record
Temperature  
Mean Temperature 59 °F 54 °F  
Max Temperature 71 °F 64 °F 84 °F (1958)
Min Temperature 46 °F 43 °F 21 °F (1940)
Degree Days  
Heating Degree Days 6 12  
Month to date heating degree days 116 148  
Since 1 July heating degree days 267 262  
Cooling Degree Days 0 0  
Month to date cooling degree days 23 9  
Year to date cooling degree days 2457 2183  
Growing Degree Days 8 (Base 50)    
Moisture  
Dew Point 56 °F    
Average Humidity 79    
Maximum Humidity 97    
Minimum Humidity 60    
Precipitation  
Precipitation 0.52 in 0.18 in 3.10 in (1987)
Month to date precipitation 1.30 2.33  
Year to date precipitation 24.12 44.29  
Sea Level Pressure  
Sea Level Pressure 29.87 in    
Wind  
Wind Speed 14 mph (North)    
Max Wind Speed 24 mph    
Max Gust Speed 36 mph    
Visibility 9 miles    
Events Rain , Thunderstorm    
T = Trace of Precipitation, MM = Missing Value Source: NWS Daily Summary

Daily Weather History Graph

Daily Weather History Graph

Search for Another Location

Airport or City:

Trip Planner

Search our weather history database for the weather conditions in past years. The results will help you decide how hot, cold, wet, or windy it might be!

Date:

Astronomy

Nov. 16, 2011 Rise Set
Actual Time 6:36 AM CST 5:00 PM CST
Civil Twilight 6:09 AM CST 5:27 PM CST
Nautical Twilight 5:39 AM CST 5:57 PM CST
Astronomical Twilight 5:10 AM CST 6:26 PM CST
Moon 10:12 PM CST (11/16) 11:13 AM CST (11/16)
Length of Visible Light 11h 17m
Length of Day
10h 24m
Waning Gibbous, 70% of the Moon is Illuminated
Nov 16
Waning Gibbous
Nov 18
Last Quarter
Nov 25
New
Dec 2
First Quarter
Dec 10
Full

Hourly Weather History & Observations

Time (CST) Temp. Windchill Dew Point Humidity Pressure Visibility Wind Dir Wind Speed Gust Speed Precip Events Conditions
12:15 AM 69.8 °F - 66.2 °F 88% 29.73 in 9.0 mi SSE 19.6 mph 27.6 mph 0.00 in Rain , Thunderstorm Light Rain
12:37 AM 68.0 °F - 66.2 °F 94% 29.73 in 10.0 mi South 12.7 mph 24.2 mph 0.01 in Rain Light Rain
12:53 AM 66.9 °F - 64.0 °F 90% 29.75 in 10.0 mi SSW 12.7 mph - 0.01 in   Mostly Cloudy
1:53 AM 66.0 °F - 64.0 °F 93% 29.75 in 10.0 mi SSW 5.8 mph - N/A   Overcast
2:26 AM 66.2 °F - 64.4 °F 94% 29.73 in 5.0 mi West 3.5 mph - 0.09 in Rain , Thunderstorm Rain
2:41 AM 64.4 °F - 64.4 °F 100% 29.72 in 3.0 mi Calm Calm - 0.15 in Rain Rain
2:53 AM 64.9 °F - 64.9 °F 100% 29.73 in 3.0 mi Calm Calm - 0.20 in Rain Rain
3:10 AM 64.4 °F - 64.4 °F 100% 29.71 in 2.0 mi South 3.5 mph - 0.10 in Rain Heavy Rain
3:19 AM 66.2 °F - 64.4 °F 94% 29.70 in 3.0 mi SE 3.5 mph - 0.14 in Rain Light Rain
3:53 AM 66.0 °F - 64.9 °F 96% 29.70 in 10.0 mi SSE 5.8 mph - 0.14 in   Mostly Cloudy
4:53 AM 66.9 °F - 66.0 °F 97% 29.70 in 8.0 mi SSE 9.2 mph - 0.01 in Rain Light Rain
5:21 AM 66.2 °F - 64.4 °F 94% 29.70 in 6.0 mi West 11.5 mph - 0.10 in Rain Rain
5:35 AM 64.4 °F - 64.4 °F 100% 29.70 in 7.0 mi West 11.5 mph - 0.12 in Rain Light Rain
5:37 AM 64.4 °F - 64.4 °F 100% 29.71 in 8.0 mi West 11.5 mph - 0.12 in Rain Light Rain
5:53 AM 64.9 °F - 63.0 °F 93% 29.74 in 10.0 mi NNW 17.3 mph 21.9 mph 0.12 in   Mostly Cloudy
6:00 AM 64.4 °F - 62.6 °F 94% 29.73 in 10.0 mi NNW 17.3 mph - N/A   Overcast
6:15 AM 62.6 °F - 60.8 °F 94% 29.74 in 10.0 mi North 15.0 mph - N/A   Overcast
6:30 AM 62.6 °F - 62.6 °F 100% 29.76 in 10.0 mi NNW 11.5 mph - N/A   Overcast
6:53 AM 63.0 °F - 61.0 °F 93% 29.80 in 10.0 mi North 13.8 mph - 0.00 in Rain Light Rain
7:22 AM 62.6 °F - 60.8 °F 94% 29.78 in 10.0 mi NNE 11.5 mph - 0.00 in   Overcast
7:53 AM 61.0 °F - 59.0 °F 93% 29.82 in 10.0 mi NNE 10.4 mph - 0.00 in   Overcast
8:53 AM 61.0 °F - 59.0 °F 93% 29.84 in 10.0 mi North 15.0 mph 21.9 mph N/A   Overcast
9:25 AM 62.6 °F - 59.0 °F 88% 29.84 in 10.0 mi North 15.0 mph 21.9 mph N/A   Overcast
9:53 AM 63.0 °F - 59.0 °F 87% 29.87 in 10.0 mi NNE 13.8 mph 21.9 mph N/A   Overcast
10:07 AM 62.6 °F - 59.0 °F 88% 29.85 in 10.0 mi NNE 12.7 mph - N/A   Overcast
10:53 AM 62.1 °F - 57.9 °F 86% 29.89 in 10.0 mi North 15.0 mph - N/A   Overcast
11:53 AM 62.1 °F - 57.0 °F 84% 29.90 in 10.0 mi NNE 15.0 mph - N/A   Overcast
12:53 PM 62.1 °F - 55.9 °F 80% 29.90 in 10.0 mi North 16.1 mph 23.0 mph N/A   Overcast
1:53 PM 57.0 °F - 51.1 °F 81% 29.91 in 10.0 mi North 19.6 mph - N/A   Overcast
2:29 PM 55.4 °F - 51.8 °F 88% 29.90 in 10.0 mi North 11.5 mph - N/A   Overcast
2:48 PM 55.4 °F - 51.8 °F 88% 29.91 in 10.0 mi North 13.8 mph - N/A   Overcast
2:53 PM 57.0 °F - 51.1 °F 81% 29.93 in 10.0 mi North 17.3 mph - N/A   Overcast
3:39 PM 55.4 °F - 50.0 °F 82% 29.93 in 10.0 mi North 17.3 mph - N/A   Overcast
3:53 PM 55.0 °F - 48.9 °F 80% 29.96 in 10.0 mi North 18.4 mph - N/A   Overcast
4:53 PM 53.1 °F - 46.0 °F 77% 29.99 in 10.0 mi North 20.7 mph 25.3 mph N/A   Overcast
5:21 PM 53.6 °F - 44.6 °F 72% 29.99 in 10.0 mi North 16.1 mph 23.0 mph N/A   Overcast
5:53 PM 52.0 °F - 43.0 °F 71% 30.04 in 10.0 mi North 15.0 mph - N/A   Overcast
6:53 PM 51.1 °F - 42.1 °F 71% 30.07 in 10.0 mi North 15.0 mph 26.5 mph N/A   Overcast
7:53 PM 50.0 °F - 39.0 °F 66% 30.10 in 10.0 mi North 19.6 mph 27.6 mph N/A   Overcast
8:49 PM 46.4 °F 39.0 °F 39.2 °F 76% 30.15 in 6.0 mi North 19.6 mph 26.5 mph 0.01 in Rain Light Rain
8:53 PM 46.0 °F 38.0 °F 39.9 °F 79% 30.18 in 5.0 mi North 21.9 mph 27.6 mph 0.01 in Rain Rain
9:53 PM 46.9 °F - 39.0 °F 74% 30.20 in 10.0 mi North 18.4 mph 27.6 mph 0.03 in   Overcast
10:53 PM 46.9 °F - 34.0 °F 61% 30.22 in 10.0 mi North 18.4 mph - N/A   Overcast
11:53 PM 46.0 °F 41.4 °F 36.0 °F 68% 30.24 in 10.0 mi North 9.2 mph - 0.00 in   Overcast